Guam Agana, GU

4:42 AM ChST on December 10, 2019 (GMT +1000)
Guam International

Weather History for PGUM - November, 2019

Change the Weather History Date:

Thursday, November 14, 2019

  Actual Average Record
Temperature  
Mean Temperature 84 °F -  
Max Temperature 89 °F 85 °F 90 °F (2015)
Min Temperature 78 °F 75 °F 73 °F (2005)
Cooling Degree Days 18    
Growing Degree Days 34 (Base 50)    
Moisture  
Dew Point 74 °F    
Average Humidity 76    
Maximum Humidity 90    
Minimum Humidity 53    
Precipitation  
Precipitation 0.07 in - - ()
Sea Level Pressure  
Sea Level Pressure 29.82 in    
Wind  
Wind Speed 7 mph ()    
Max Wind Speed 15 mph    
Max Gust Speed -    
Visibility 9.5 miles    
Events Rain    
Averages and records for this station are not official NWS values.
T = Trace of Precipitation, MM = Missing Value Source: Averaged Metar Reports

Daily Weather History Graph

Daily Weather History Graph

Search for Another Location

Airport or City:

Astronomy

Nov. 14, 2019 Rise Set
Actual Time 6:19 AM ChST 5:50 PM ChST
Civil Twilight 5:57 AM ChST 6:13 PM ChST
Nautical Twilight 5:31 AM ChST 6:38 PM ChST
Astronomical Twilight 5:05 AM ChST 7:04 PM ChST
Moon 7:16 PM ChST (11/14) 7:29 AM ChST (11/14)
Length of Visible Light 12h 15m
Length of Day
11h 31m
Full, 98% of the Moon is Illuminated
Nov 14
Full
Nov 20
Last Quarter
Nov 27
New
Dec 4
First Quarter
Dec 12
Full

Hourly Weather History & Observations

Time (ChST) Temp. Heat Index Dew Point Humidity Pressure Visibility Wind Dir Wind Speed Gust Speed Precip Events Conditions
12:01 AM 78.1 °F - 75.0 °F 90% 29.88 in 3.0 mi NNE 13.8 mph - 0.00 in Rain Heavy Rain
12:08 AM 78.1 °F - 75.0 °F 90% 29.88 in 3.0 mi NNE 5.8 mph - 0.06 in Rain Heavy Rain
12:54 AM 78.1 °F - 75.0 °F 90% 29.84 in 10.0 mi NE 4.6 mph - 0.07 in   Clear
1:54 AM 79.0 °F - 75.9 °F 90% 29.83 in 10.0 mi NE 5.8 mph - N/A   Overcast
2:54 AM 79.0 °F - 75.0 °F 88% 29.80 in 10.0 mi NNE 6.9 mph - N/A   Overcast
3:54 AM 78.1 °F - 75.0 °F 90% 29.79 in 10.0 mi NNE 6.9 mph - N/A   Scattered Clouds
4:54 AM 78.1 °F - 75.0 °F 90% 29.78 in 10.0 mi Calm Calm - N/A   Clear
5:54 AM 78.1 °F - 73.9 °F 87% 29.80 in 10.0 mi Calm Calm - N/A   Partly Cloudy
6:54 AM 78.1 °F - 75.0 °F 90% 29.83 in 10.0 mi NNE 4.6 mph - N/A   Scattered Clouds
7:54 AM 81.0 °F 86.7 °F 75.0 °F 82% 29.85 in 10.0 mi NNE 8.1 mph - N/A   Partly Cloudy
8:54 AM 84.0 °F 91.2 °F 73.9 °F 72% 29.87 in 10.0 mi NE 12.7 mph - N/A   Scattered Clouds
9:15 AM 84.0 °F 91.2 °F 73.9 °F 72% 29.90 in 10.0 mi North 11.5 mph - N/A   Mostly Cloudy
9:38 AM 82.9 °F 88.0 °F 72.0 °F 69% 29.90 in 10.0 mi NNE 15.0 mph - N/A   Scattered Clouds
9:54 AM 86.0 °F 92.2 °F 72.0 °F 63% 29.86 in 10.0 mi NE 13.8 mph - N/A   Clear
10:54 AM 87.1 °F 94.5 °F 73.0 °F 63% 29.85 in 10.0 mi NE 12.7 mph - N/A   Partly Cloudy
11:42 AM 88.0 °F 95.6 °F 73.0 °F 61% 29.84 in 10.0 mi NNE 11.5 mph - N/A   Mostly Cloudy
11:49 AM 87.8 °F 95.6 °F 73.4 °F 62% 29.84 in 10.0 mi NE 12.7 mph - N/A   Scattered Clouds
11:54 AM 88.0 °F 94.7 °F 72.0 °F 59% 29.81 in 10.0 mi NE 9.2 mph - N/A   Partly Cloudy
12:54 PM 88.0 °F 97.5 °F 75.0 °F 65% 29.78 in 10.0 mi NNW 11.5 mph - N/A   Clear
1:54 PM 88.0 °F 97.5 °F 75.0 °F 65% 29.75 in 10.0 mi NNW 10.4 mph - N/A   Clear
2:54 PM 89.1 °F 94.1 °F 70.0 °F 53% 29.74 in 10.0 mi North 5.8 mph - N/A   Clear
3:54 PM 87.1 °F 94.5 °F 73.0 °F 63% 29.73 in 10.0 mi NNW 10.4 mph - N/A   Partly Cloudy
4:54 PM 84.0 °F 91.2 °F 73.9 °F 72% 29.75 in 10.0 mi North 9.2 mph - N/A   Clear
5:54 PM 81.0 °F 85.8 °F 73.0 °F 77% 29.77 in 10.0 mi North 5.8 mph - N/A   Clear
6:54 PM 80.1 °F 84.2 °F 73.0 °F 79% 29.81 in 10.0 mi NNE 4.6 mph - N/A   Clear
7:54 PM 81.0 °F 85.8 °F 73.0 °F 77% 29.81 in 10.0 mi Calm Calm - N/A   Clear
8:54 PM 78.1 °F - 73.0 °F 84% 29.80 in 10.0 mi Calm Calm - N/A   Clear
9:54 PM 80.1 °F 84.5 °F 73.9 °F 81% 29.80 in 10.0 mi NNE 3.5 mph - N/A   Clear
10:54 PM 80.1 °F 84.2 °F 73.0 °F 79% 29.79 in 10.0 mi NE 3.5 mph - N/A   Clear
11:54 PM 79.0 °F - 73.0 °F 82% 29.78 in 10.0 mi East 4.6 mph - N/A   Clear